TIME,�Ζ��t�@���q�[�^�[�[-���� [L],�t���O,�Ζ��t�@���q�[�^�[-���� [MJ/h],�t���O
2004/3/1 0:00,0,0,0,0
2004/3/1 0:15,0,0,0,0
2004/3/1 0:30,0,0,0,0
2004/3/1 0:45,0,0,0,0
2004/3/1 1:00,0,0,0,0
2004/3/1 1:15,0,0,0,0
2004/3/1 1:30,0,0,0,0
2004/3/1 1:45,0,0,0,0
2004/3/1 2:00,0,0,0,0
2004/3/1 2:15,0,0,0,0
2004/3/1 2:30,0,0,0,0
2004/3/1 2:45,0,0,0,0
2004/3/1 3:00,0,0,0,0
2004/3/1 3:15,0,0,0,0
2004/3/1 3:30,0,0,0,0
2004/3/1 3:45,0,0,0,0
2004/3/1 4:00,0,0,0,0
2004/3/1 4:15,0,0,0,0
2004/3/1 4:30,0,0,0,0
2004/3/1 4:45,0,0,0,0
2004/3/1 5:00,0,0,0,0
2004/3/1 5:15,0,0,0,0
2004/3/1 5:30,0,0,0,0
2004/3/1 5:45,0,0,0,0
2004/3/1 6:00,0.072835422,0,10.69224,0
2004/3/1 6:15,0.073847084,0,10.840752,0
2004/3/1 6:30,0.073851335,0,10.841376,0
2004/3/1 6:45,0.071067139,0,10.432656,0
2004/3/1 7:00,0.05391139,0,7.914192,0
2004/3/1 7:15,0.055467139,0,8.142576,0
2004/3/1 7:30,0.062225722,0,9.134736,0
2004/3/1 7:45,0.071708992,0,10.52688,0
2004/3/1 8:00,0.069660163,0,10.226112,0
2004/3/1 8:15,0.070080981,0,10.287888,0
2004/3/1 8:30,0.075912916,0,11.144016,0
2004/3/1 8:45,0,0,0,0
2004/3/1 9:00,0,0,0,0
2004/3/1 9:15,0,0,0,0
2004/3/1 9:30,0,0,0,0
2004/3/1 9:45,0,0,0,0
2004/3/1 10:00,0,0,0,0
2004/3/1 10:15,0,0,0,0
2004/3/1 10:30,0,0,0,0
2004/3/1 10:45,0,0,0,0
2004/3/1 11:00,0,0,0,0
2004/3/1 11:15,0,0,0,0
2004/3/1 11:30,0,0,0,0
2004/3/1 11:45,0,0,0,0
2004/3/1 12:00,0,0,0,0
2004/3/1 12:15,0,0,0,0
2004/3/1 12:30,0,0,0,0
2004/3/1 12:45,0,0,0,0
2004/3/1 13:00,0,0,0,0
2004/3/1 13:15,0,0,0,0
2004/3/1 13:30,0.024279891,0,3.564288,0
2004/3/1 13:45,0.073842834,0,10.840128,0
2004/3/1 14:00,0.073851335,0,10.841376,0
2004/3/1 14:15,0.073851335,0,10.841376,0
2004/3/1 14:30,0.073307248,0,10.761504,0
2004/3/1 14:45,0.050804142,0,7.458048,0
2004/3/1 15:00,0,0,0,0
2004/3/1 15:15,0,0,0,0
2004/3/1 15:30,0,0,0,0
2004/3/1 15:45,0,0,0,0
2004/3/1 16:00,0,0,0,0
2004/3/1 16:15,0,0,0,0
2004/3/1 16:30,0,0,0,0
2004/3/1 16:45,0,0,0,0
2004/3/1 17:00,0,0,0,0
2004/3/1 17:15,0.071751499,0,10.53312,0
2004/3/1 17:30,0.073847084,0,10.840752,0
2004/3/1 17:45,0.073851335,0,10.841376,0
2004/3/1 18:00,0.073851335,0,10.841376,0
2004/3/1 18:15,0.07250812,0,10.644192,0
2004/3/1 18:30,0.073247738,0,10.752768,0
2004/3/1 18:45,0.046897766,0,6.884592,0
2004/3/1 19:00,0,0,0,0
2004/3/1 19:15,0,0,0,0
2004/3/1 19:30,0.042005232,0,6.166368,0
2004/3/1 19:45,0.073847084,0,10.840752,0
2004/3/1 20:00,0.073621798,0,10.80768,0
2004/3/1 20:15,0.073583542,0,10.802064,0
2004/3/1 20:30,0.071020381,0,10.425792,0
2004/3/1 20:45,0.066552916,0,9.769968,0
2004/3/1 21:00,0.05647455,0,8.290464,0
2004/3/1 21:15,0.070633569,0,10.369008,0
2004/3/1 21:30,0.073855586,0,10.842,0
2004/3/1 21:45,0.073851335,0,10.841376,0
2004/3/1 22:00,0.070659074,0,10.372752,0
2004/3/1 22:15,0.066072589,0,9.699456,0
2004/3/1 22:30,0.058230082,0,8.548176,0
2004/3/1 22:45,0.064661362,0,9.492288,0
2004/3/1 23:00,0.052508665,0,7.708272,0
2004/3/1 23:15,0,0,0,0
2004/3/1 23:30,0,0,0,0
2004/3/1 23:45,0,0,0,0
2004/3/2 0:00,0,0,0,0
2004/3/2 0:15,0,0,0,0
2004/3/2 0:30,0,0,0,0
2004/3/2 0:45,0,0,0,0
2004/3/2 1:00,0,0,0,0
2004/3/2 1:15,0,0,0,0
2004/3/2 1:30,0,0,0,0
2004/3/2 1:45,0,0,0,0
2004/3/2 2:00,0,0,0,0
2004/3/2 2:15,0,0,0,0
2004/3/2 2:30,0,0,0,0
2004/3/2 2:45,0,0,0,0
2004/3/2 3:00,0,0,0,0
2004/3/2 3:15,0,0,0,0
2004/3/2 3:30,0,0,0,0
2004/3/2 3:45,0,0,0,0
2004/3/2 4:00,0,0,0,0
2004/3/2 4:15,0,0,0,0
2004/3/2 4:30,0,0,0,0
2004/3/2 4:45,0,0,0,0
2004/3/2 5:00,0,0,0,0
2004/3/2 5:15,0,0,0,0
2004/3/2 5:30,0,0,0,0
2004/3/2 5:45,0,0,0,0
2004/3/2 6:00,0.070242507,0,10.3116,0
2004/3/2 6:15,0.073847084,0,10.840752,0
2004/3/2 6:30,0.073847084,0,10.840752,0
2004/3/2 6:45,0.073851335,0,10.841376,0
2004/3/2 7:00,0.072329591,0,10.617984,0
2004/3/2 7:15,0.06832545,0,10.030176,0
2004/3/2 7:30,0.063071608,0,9.258912,0
2004/3/2 7:45,0.073855586,0,10.842,0
2004/3/2 8:00,0.073851335,0,10.841376,0
2004/3/2 8:15,0.073851335,0,10.841376,0
2004/3/2 8:30,0.072231826,0,10.603632,0
2004/3/2 8:45,0.073120218,0,10.734048,0
2004/3/2 9:00,0.062319237,0,9.148464,0
2004/3/2 9:15,0,0,0,0
2004/3/2 9:30,0,0,0,0
2004/3/2 9:45,0.062510518,0,9.176544,0
2004/3/2 10:00,0.073851335,0,10.841376,0
2004/3/2 10:15,0.073851335,0,10.841376,0
2004/3/2 10:30,0.073851335,0,10.841376,0
2004/3/2 10:45,0.066931226,0,9.825504,0
2004/3/2 11:00,0.073851335,0,10.841376,0
2004/3/2 11:15,0.07288218,0,10.699104,0
2004/3/2 11:30,0.071088392,0,10.435776,0
2004/3/2 11:45,0.08255673,0,12.119328,0
2004/3/2 12:00,0,0,0,0
2004/3/2 12:15,0.030868447,0,4.531488,0
2004/3/2 12:30,0,0,0,0
2004/3/2 12:45,0.065252207,0,9.579024,0
2004/3/2 13:00,0.073851335,0,10.841376,0
2004/3/2 13:15,0.073426267,0,10.778976,0
2004/3/2 13:30,0.073851335,0,10.841376,0
2004/3/2 13:45,0.072108556,0,10.585536,0
2004/3/2 14:00,0.073851335,0,10.841376,0
2004/3/2 14:15,0.071896022,0,10.554336,0
2004/3/2 14:30,0.072593134,0,10.656672,0
2004/3/2 14:45,0.057915531,0,8.502,0
2004/3/2 15:00,0.070982125,0,10.420176,0
2004/3/2 15:15,0.049316403,0,7.239648,0
2004/3/2 15:30,0.024581689,0,3.608592,0
2004/3/2 15:45,0.073847084,0,10.840752,0
2004/3/2 16:00,0.071453951,0,10.48944,0
2004/3/2 16:15,0.067806866,0,9.954048,0
2004/3/2 16:30,0.067114005,0,9.852336,0
2004/3/2 16:45,0.065307466,0,9.587136,0
2004/3/2 17:00,0.070905613,0,10.408944,0
2004/3/2 17:15,0.071504959,0,10.496928,0
2004/3/2 17:30,0.066748447,0,9.798672,0
2004/3/2 17:45,0.069307357,0,10.17432,0
2004/3/2 18:00,0.073536785,0,10.7952,0
2004/3/2 18:15,0.073855586,0,10.842,0
2004/3/2 18:30,0.073851335,0,10.841376,0
2004/3/2 18:45,0.073851335,0,10.841376,0
2004/3/2 19:00,0.073855586,0,10.842,0
2004/3/2 19:15,0.073851335,0,10.841376,0
2004/3/2 19:30,0.073094714,0,10.730304,0
2004/3/2 19:45,0.063636948,0,9.341904,0
2004/3/2 20:00,0.058735913,0,8.622432,0
2004/3/2 20:15,0.062289482,0,9.144096,0
2004/3/2 20:30,0.071487956,0,10.494432,0
2004/3/2 20:45,0.072733406,0,10.677264,0
2004/3/2 21:00,0.073579292,0,10.80144,0
2004/3/2 21:15,0.0736303,0,10.808928,0
2004/3/2 21:30,0.063347902,0,9.299472,0
2004/3/2 21:45,0.064729373,0,9.502272,0
2004/3/2 22:00,0.068087411,0,9.995232,0
2004/3/2 22:15,0.064538093,0,9.474192,0
2004/3/2 22:30,0.064822888,0,9.516,0
2004/3/2 22:45,0.066195858,0,9.717552,0
2004/3/2 23:00,0.064635858,0,9.488544,0
2004/3/2 23:15,0.066867466,0,9.816144,0
2004/3/2 23:30,0.062859074,0,9.227712,0
2004/3/2 23:45,0,0,0,0
2004/3/3 0:00,0,0,0,0
2004/3/3 0:15,0,0,0,0
2004/3/3 0:30,0,0,0,0
2004/3/3 0:45,0,0,0,0
2004/3/3 1:00,0,0,0,0
2004/3/3 1:15,0,0,0,0
2004/3/3 1:30,0,0,0,0
2004/3/3 1:45,0,0,0,0
2004/3/3 2:00,0,0,0,0
2004/3/3 2:15,0,0,0,0
2004/3/3 2:30,0,0,0,0
2004/3/3 2:45,0,0,0,0
2004/3/3 3:00,0,0,0,0
2004/3/3 3:15,0,0,0,0
2004/3/3 3:30,0,0,0,0
2004/3/3 3:45,0,0,0,0
2004/3/3 4:00,0,0,0,0
2004/3/3 4:15,0,0,0,0
2004/3/3 4:30,0,0,0,0
2004/3/3 4:45,0,0,0,0
2004/3/3 5:00,0,0,0,0
2004/3/3 5:15,0,0,0,0
2004/3/3 5:30,0,0,0,0
2004/3/3 5:45,0.00624,0,0.916032,0
2004/3/3 6:00,0.073838583,0,10.839504,0
2004/3/3 6:15,0.073847084,0,10.840752,0
2004/3/3 6:30,0.073847084,0,10.840752,0
2004/3/3 6:45,0.073851335,0,10.841376,0
2004/3/3 7:00,0.073851335,0,10.841376,0
2004/3/3 7:15,0.073851335,0,10.841376,0
2004/3/3 7:30,0.073851335,0,10.841376,0
2004/3/3 7:45,0.073851335,0,10.841376,0
2004/3/3 8:00,0.073851335,0,10.841376,0
2004/3/3 8:15,0.073851335,0,10.841376,0
2004/3/3 8:30,0.056270518,0,8.260512,0
2004/3/3 8:45,0,0,0,0
2004/3/3 9:00,0,0,0,0
2004/3/3 9:15,0,0,0,0
2004/3/3 9:30,0,0,0,0
2004/3/3 9:45,0,0,0,0
2004/3/3 10:00,0,0,0,0
2004/3/3 10:15,0,0,0,0
2004/3/3 10:30,0,0,0,0
2004/3/3 10:45,0,0,0,0
2004/3/3 11:00,0,0,0,0
2004/3/3 11:15,0,0,0,0
2004/3/3 11:30,0,0,0,0
2004/3/3 11:45,0,0,0,0
2004/3/3 12:00,0,0,0,0
2004/3/3 12:15,0,0,0,0
2004/3/3 12:30,0,0,0,0
2004/3/3 12:45,0,0,0,0
2004/3/3 13:00,0,0,0,0
2004/3/3 13:15,0,0,0,0
2004/3/3 13:30,0.0533503,0,7.831824,0
2004/3/3 13:45,0.073842834,0,10.840128,0
2004/3/3 14:00,0.073847084,0,10.840752,0
2004/3/3 14:15,0.073851335,0,10.841376,0
2004/3/3 14:30,0.073847084,0,10.840752,0
2004/3/3 14:45,0.073851335,0,10.841376,0
2004/3/3 15:00,0.073851335,0,10.841376,0
2004/3/3 15:15,0.073855586,0,10.842,0
2004/3/3 15:30,0.072814169,0,10.68912,0
2004/3/3 15:45,0.072546376,0,10.649808,0
2004/3/3 16:00,0.07375782,0,10.827648,0
2004/3/3 16:15,0.073855586,0,10.842,0
2004/3/3 16:30,0.071781253,0,10.537488,0
2004/3/3 16:45,0,0,0,0
2004/3/3 17:00,0,0,0,0
2004/3/3 17:15,0,0,0,0
2004/3/3 17:30,0.063590191,0,9.33504,0
2004/3/3 17:45,0.073851335,0,10.841376,0
2004/3/3 18:00,0.073851335,0,10.841376,0
2004/3/3 18:15,0.073851335,0,10.841376,0
2004/3/3 18:30,0.071598474,0,10.510656,0
2004/3/3 18:45,0.069847193,0,10.253568,0
2004/3/3 19:00,0.068431717,0,10.045776,0
2004/3/3 19:15,0.07357079,0,10.800192,0
2004/3/3 19:30,0.073855586,0,10.842,0
2004/3/3 19:45,0.073851335,0,10.841376,0
2004/3/3 20:00,0.072848174,0,10.694112,0
2004/3/3 20:15,0.070029973,0,10.2804,0
2004/3/3 20:30,0.071802507,0,10.540608,0
2004/3/3 20:45,0.073847084,0,10.840752,0
2004/3/3 21:00,0.073787575,0,10.832016,0
2004/3/3 21:15,0.073851335,0,10.841376,0
2004/3/3 21:30,0.070931117,0,10.412688,0
2004/3/3 21:45,0.073851335,0,10.841376,0
2004/3/3 22:00,0.072202071,0,10.599264,0
2004/3/3 22:15,0.073451771,0,10.78272,0
2004/3/3 22:30,0.071237166,0,10.457616,0
2004/3/3 22:45,0.069851444,0,10.254192,0
2004/3/3 23:00,0.063513678,0,9.323808,0
2004/3/3 23:15,0.065065177,0,9.551568,0
2004/3/3 23:30,0.06171564,0,9.059856,0
2004/3/3 23:45,0.064249046,0,9.43176,0
2004/3/4 0:00,0.059709319,0,8.765328,0
2004/3/4 0:15,0.052818965,0,7.753824,0
2004/3/4 0:30,0.062948338,0,9.240816,0
2004/3/4 0:45,0,0,0,0
2004/3/4 1:00,0,0,0,0
2004/3/4 1:15,0,0,0,0
2004/3/4 1:30,0,0,0,0
2004/3/4 1:45,0,0,0,0
2004/3/4 2:00,0,0,0,0
2004/3/4 2:15,0,0,0,0
2004/3/4 2:30,0,0,0,0
2004/3/4 2:45,0,0,0,0
2004/3/4 3:00,0,0,0,0
2004/3/4 3:15,0,0,0,0
2004/3/4 3:30,0,0,0,0
2004/3/4 3:45,0,0,0,0
2004/3/4 4:00,0,0,0,0
2004/3/4 4:15,0,0,0,0
2004/3/4 4:30,0,0,0,0
2004/3/4 4:45,0,0,0,0
2004/3/4 5:00,0,0,0,0
2004/3/4 5:15,0,0,0,0
2004/3/4 5:30,0,0,0,0
2004/3/4 5:45,0.005751172,0,0.844272,0
2004/3/4 6:00,0.073842834,0,10.840128,0
2004/3/4 6:15,0.073847084,0,10.840752,0
2004/3/4 6:30,0.073851335,0,10.841376,0
2004/3/4 6:45,0.073847084,0,10.840752,0
2004/3/4 7:00,0.07337951,0,10.772112,0
2004/3/4 7:15,0.073579292,0,10.80144,0
2004/3/4 7:30,0.064623106,0,9.486672,0
2004/3/4 7:45,0.07244861,0,10.635456,0
2004/3/4 8:00,0.071789755,0,10.538736,0
2004/3/4 8:15,0.073855586,0,10.842,0
2004/3/4 8:30,0.073107466,0,10.732176,0
2004/3/4 8:45,0.073740817,0,10.825152,0
2004/3/4 9:00,0,0,0,0
2004/3/4 9:15,0.070148992,0,10.297872,0
2004/3/4 9:30,0.073851335,0,10.841376,0
2004/3/4 9:45,0.073855586,0,10.842,0
2004/3/4 10:00,0.073851335,0,10.841376,0
2004/3/4 10:15,0.072860926,0,10.695984,0
2004/3/4 10:30,0.065477493,0,9.612096,0
2004/3/4 10:45,0.079198692,0,11.626368,0
2004/3/4 11:00,0,0,0,0
2004/3/4 11:15,0,0,0,0
2004/3/4 11:30,0,0,0,0
2004/3/4 11:45,0,0,0,0
2004/3/4 12:00,0,0,0,0
2004/3/4 12:15,0,0,0,0
2004/3/4 12:30,0,0,0,0
2004/3/4 12:45,0,0,0,0
2004/3/4 13:00,0.025988665,0,3.815136,0
2004/3/4 13:15,0.073842834,0,10.840128,0
2004/3/4 13:30,0.073847084,0,10.840752,0
2004/3/4 13:45,0.073851335,0,10.841376,0
2004/3/4 14:00,0.073851335,0,10.841376,0
2004/3/4 14:15,0.073851335,0,10.841376,0
2004/3/4 14:30,0,0,0,0
2004/3/4 14:45,0,0,0,0
2004/3/4 15:00,0,0,0,0
2004/3/4 15:15,0.042914877,0,6.299904,0
2004/3/4 15:30,0.073847084,0,10.840752,0
2004/3/4 15:45,0.07288218,0,10.699104,0
2004/3/4 16:00,0.072036294,0,10.574928,0
2004/3/4 16:15,0.064937657,0,9.532848,0
2004/3/4 16:30,0.072108556,0,10.585536,0
2004/3/4 16:45,0.071067139,0,10.432656,0
2004/3/4 17:00,0.069303106,0,10.173696,0
2004/3/4 17:15,0.064572098,0,9.479184,0
2004/3/4 17:30,0.072975695,0,10.712832,0
2004/3/4 17:45,0.055900708,0,8.206224,0
2004/3/4 18:00,0.069120327,0,10.146864,0
2004/3/4 18:15,0.072576131,0,10.654176,0
2004/3/4 18:30,0.071968283,0,10.564944,0
2004/3/4 18:45,0.071517711,0,10.4988,0
2004/3/4 19:00,0.058765668,0,8.6268,0
2004/3/4 19:15,0.067449809,0,9.901632,0
2004/3/4 19:30,0.073855586,0,10.842,0
2004/3/4 19:45,0.073541035,0,10.795824,0
2004/3/4 20:00,0.065111935,0,9.558432,0
2004/3/4 20:15,0.073851335,0,10.841376,0
2004/3/4 20:30,0.073855586,0,10.842,0
2004/3/4 20:45,0.073405014,0,10.775856,0
2004/3/4 21:00,0.073851335,0,10.841376,0
2004/3/4 21:15,0.073851335,0,10.841376,0
2004/3/4 21:30,0.073851335,0,10.841376,0
2004/3/4 21:45,0.073358256,0,10.768992,0
2004/3/4 22:00,0.073851335,0,10.841376,0
2004/3/4 22:15,0.073855586,0,10.842,0
2004/3/4 22:30,0.073558038,0,10.79832,0
2004/3/4 22:45,0.073851335,0,10.841376,0
2004/3/4 23:00,0.073375259,0,10.771488,0
2004/3/4 23:15,0.035454932,0,5.204784,0
2004/3/4 23:30,0,0,0,0
2004/3/4 23:45,0,0,0,0
2004/3/5 0:00,0,0,0,0
2004/3/5 0:15,0,0,0,0
2004/3/5 0:30,0,0,0,0
2004/3/5 0:45,0,0,0,0
2004/3/5 1:00,0,0,0,0
2004/3/5 1:15,0,0,0,0
2004/3/5 1:30,0,0,0,0
2004/3/5 1:45,0,0,0,0
2004/3/5 2:00,0,0,0,0
2004/3/5 2:15,0,0,0,0
2004/3/5 2:30,0,0,0,0
2004/3/5 2:45,0,0,0,0
2004/3/5 3:00,0,0,0,0
2004/3/5 3:15,0,0,0,0
2004/3/5 3:30,0,0,0,0
2004/3/5 3:45,0,0,0,0
2004/3/5 4:00,0,0,0,0
2004/3/5 4:15,0,0,0,0
2004/3/5 4:30,0,0,0,0
2004/3/5 4:45,0,0,0,0
2004/3/5 5:00,0,0,0,0
2004/3/5 5:15,0,0,0,0
2004/3/5 5:30,0,0,0,0
2004/3/5 5:45,0,0,0,0
2004/3/5 6:00,0.072614387,0,10.659792,0
2004/3/5 6:15,0.073842834,0,10.840128,0
2004/3/5 6:30,0.073851335,0,10.841376,0
2004/3/5 6:45,0.073847084,0,10.840752,0
2004/3/5 7:00,0.073851335,0,10.841376,0
2004/3/5 7:15,0.073851335,0,10.841376,0
2004/3/5 7:30,0.073847084,0,10.840752,0
2004/3/5 7:45,0.073851335,0,10.841376,0
2004/3/5 8:00,0.073851335,0,10.841376,0
2004/3/5 8:15,0.05859564,0,8.60184,0
2004/3/5 8:30,0,0,0,0
2004/3/5 8:45,0,0,0,0
2004/3/5 9:00,0,0,0,0
2004/3/5 9:15,0,0,0,0
2004/3/5 9:30,0,0,0,0
2004/3/5 9:45,0,0,0,0
2004/3/5 10:00,0,0,0,0
2004/3/5 10:15,0,0,0,0
2004/3/5 10:30,0,0,0,0
2004/3/5 10:45,0,0,0,0
2004/3/5 11:00,0,0,0,0
2004/3/5 11:15,0,0,0,0
2004/3/5 11:30,0,0,0,0
2004/3/5 11:45,0,0,0,0
2004/3/5 12:00,0,0,0,0
2004/3/5 12:15,0,0,0,0
2004/3/5 12:30,0,0,0,0
2004/3/5 12:45,0,0,0,0
2004/3/5 13:00,0,0,0,0
2004/3/5 13:15,0.042532316,0,6.243744,0
2004/3/5 13:30,0,0,0,0
2004/3/5 13:45,0,0,0,0
2004/3/5 14:00,0,0,0,0
2004/3/5 14:15,0,0,0,0
2004/3/5 14:30,0,0,0,0
2004/3/5 14:45,0,0,0,0
2004/3/5 15:00,0,0,0,0
2004/3/5 15:15,0,0,0,0
2004/3/5 15:30,0,0,0,0
2004/3/5 15:45,0,0,0,0
2004/3/5 16:00,0,0,0,0
2004/3/5 16:15,0,0,0,0
2004/3/5 16:30,0,0,0,0
2004/3/5 16:45,0,0,0,0
2004/3/5 17:00,0,0,0,0
2004/3/5 17:15,0.023888828,0,3.50688,0
2004/3/5 17:30,0.073838583,0,10.839504,0
2004/3/5 17:45,0.073847084,0,10.840752,0
2004/3/5 18:00,0.073847084,0,10.840752,0
2004/3/5 18:15,0.073847084,0,10.840752,0
2004/3/5 18:30,0.073847084,0,10.840752,0
2004/3/5 18:45,0.0751903,0,11.037936,0
2004/3/5 19:00,0,0,0,0
2004/3/5 19:15,0,0,0,0
2004/3/5 19:30,0.029100163,0,4.271904,0
2004/3/5 19:45,0.073842834,0,10.840128,0
2004/3/5 20:00,0.073847084,0,10.840752,0
2004/3/5 20:15,0.073847084,0,10.840752,0
2004/3/5 20:30,0.073851335,0,10.841376,0
2004/3/5 20:45,0.073847084,0,10.840752,0
2004/3/5 21:00,0.073851335,0,10.841376,0
2004/3/5 21:15,0.073851335,0,10.841376,0
2004/3/5 21:30,0.073847084,0,10.840752,0
2004/3/5 21:45,0.073851335,0,10.841376,0
2004/3/5 22:00,0.073847084,0,10.840752,0
2004/3/5 22:15,0.073851335,0,10.841376,0
2004/3/5 22:30,0.073851335,0,10.841376,0
2004/3/5 22:45,0.073851335,0,10.841376,0
2004/3/5 23:00,0.073851335,0,10.841376,0
2004/3/5 23:15,0.073851335,0,10.841376,0
2004/3/5 23:30,0.073851335,0,10.841376,0
2004/3/5 23:45,0.073851335,0,10.841376,0
2004/3/6 0:00,0.073851335,0,10.841376,0
2004/3/6 0:15,0.073851335,0,10.841376,0
2004/3/6 0:30,0.080575913,0,11.828544,0
2004/3/6 0:45,0,0,0,0
2004/3/6 1:00,0,0,0,0
2004/3/6 1:15,0,0,0,0
2004/3/6 1:30,0,0,0,0
2004/3/6 1:45,0,0,0,0
2004/3/6 2:00,0,0,0,0
2004/3/6 2:15,0,0,0,0
2004/3/6 2:30,0,0,0,0
2004/3/6 2:45,0,0,0,0
2004/3/6 3:00,0,0,0,0
2004/3/6 3:15,0,0,0,0
2004/3/6 3:30,0,0,0,0
2004/3/6 3:45,0,0,0,0
2004/3/6 4:00,0,0,0,0
2004/3/6 4:15,0,0,0,0
2004/3/6 4:30,0,0,0,0
2004/3/6 4:45,0,0,0,0
2004/3/6 5:00,0,0,0,0
2004/3/6 5:15,0,0,0,0
2004/3/6 5:30,0,0,0,0
2004/3/6 5:45,0.000794877,0,0.116688,0
2004/3/6 6:00,0.073592044,0,10.803312,0
2004/3/6 6:15,0.073847084,0,10.840752,0
2004/3/6 6:30,0.073847084,0,10.840752,0
2004/3/6 6:45,0.073847084,0,10.840752,0
2004/3/6 7:00,0.073847084,0,10.840752,0
2004/3/6 7:15,0.073851335,0,10.841376,0
2004/3/6 7:30,0.073847084,0,10.840752,0
2004/3/6 7:45,0.073851335,0,10.841376,0
2004/3/6 8:00,0.073847084,0,10.840752,0
2004/3/6 8:15,0.073851335,0,10.841376,0
2004/3/6 8:30,0.073851335,0,10.841376,0
2004/3/6 8:45,0.073851335,0,10.841376,0
2004/3/6 9:00,0.073851335,0,10.841376,0
2004/3/6 9:15,0.073851335,0,10.841376,0
2004/3/6 9:30,0.073855586,0,10.842,0
2004/3/6 9:45,0.073851335,0,10.841376,0
2004/3/6 10:00,0.073851335,0,10.841376,0
2004/3/6 10:15,0.073851335,0,10.841376,0
2004/3/6 10:30,0.073851335,0,10.841376,0
2004/3/6 10:45,0.073851335,0,10.841376,0
2004/3/6 11:00,0.073851335,0,10.841376,0
2004/3/6 11:15,0.073855586,0,10.842,0
2004/3/6 11:30,0.073851335,0,10.841376,0
2004/3/6 11:45,0.073851335,0,10.841376,0
2004/3/6 12:00,0.073851335,0,10.841376,0
2004/3/6 12:15,0.073855586,0,10.842,0
2004/3/6 12:30,0.073851335,0,10.841376,0
2004/3/6 12:45,0.073851335,0,10.841376,0
2004/3/6 13:00,0.073604796,0,10.805184,0
2004/3/6 13:15,0.073855586,0,10.842,0
2004/3/6 13:30,0.038630191,0,5.670912,0
2004/3/6 13:45,0,0,0,0
2004/3/6 14:00,0,0,0,0
2004/3/6 14:15,0,0,0,0
2004/3/6 14:30,0.067687847,0,9.936576,0
2004/3/6 14:45,0.073851335,0,10.841376,0
2004/3/6 15:00,0.072618638,0,10.660416,0
2004/3/6 15:15,0.073405014,0,10.775856,0
2004/3/6 15:30,0.073851335,0,10.841376,0
2004/3/6 15:45,0.073847084,0,10.840752,0
2004/3/6 16:00,0.073855586,0,10.842,0
2004/3/6 16:15,0.073562289,0,10.798944,0
2004/3/6 16:30,0.07382158,0,10.837008,0
2004/3/6 16:45,0.073851335,0,10.841376,0
2004/3/6 17:00,0.073855586,0,10.842,0
2004/3/6 17:15,0.073783324,0,10.831392,0
2004/3/6 17:30,0.073426267,0,10.778976,0
2004/3/6 17:45,0.073851335,0,10.841376,0
2004/3/6 18:00,0.07337951,0,10.772112,0
2004/3/6 18:15,0.073851335,0,10.841376,0
2004/3/6 18:30,0.07213406,0,10.58928,0
2004/3/6 18:45,0.073855586,0,10.842,0
2004/3/6 19:00,0.065120436,0,9.55968,0
2004/3/6 19:15,0.069536894,0,10.208016,0
2004/3/6 19:30,0.064325559,0,9.442992,0
2004/3/6 19:45,0.073855586,0,10.842,0
2004/3/6 20:00,0.073205232,0,10.746528,0
2004/3/6 20:15,0.073698311,0,10.818912,0
2004/3/6 20:30,0.072516621,0,10.64544,0
2004/3/6 20:45,0.072996948,0,10.715952,0
2004/3/6 21:00,0.066820708,0,9.80928,0
2004/3/6 21:15,0.07194703,0,10.561824,0
2004/3/6 21:30,0.064652861,0,9.49104,0
2004/3/6 21:45,0.070829101,0,10.397712,0
2004/3/6 22:00,0.065719782,0,9.647664,0
2004/3/6 22:15,0.070875858,0,10.404576,0
2004/3/6 22:30,0.071024632,0,10.426416,0
2004/3/6 22:45,0.07013624,0,10.296,0
2004/3/6 23:00,0.065192698,0,9.570288,0
2004/3/6 23:15,0.07069733,0,10.378368,0
2004/3/6 23:30,0.065196948,0,9.570912,0
2004/3/6 23:45,0.070620817,0,10.367136,0
2004/3/7 0:00,0.0480497,0,7.053696,0
2004/3/7 0:15,0,0,0,0
2004/3/7 0:30,0,0,0,0
2004/3/7 0:45,0,0,0,0
2004/3/7 1:00,0,0,0,0
2004/3/7 1:15,0,0,0,0
2004/3/7 1:30,0,0,0,0
2004/3/7 1:45,0,0,0,0
2004/3/7 2:00,0,0,0,0
2004/3/7 2:15,0,0,0,0
2004/3/7 2:30,0,0,0,0
2004/3/7 2:45,0,0,0,0
2004/3/7 3:00,0,0,0,0
2004/3/7 3:15,0,0,0,0
2004/3/7 3:30,0,0,0,0
2004/3/7 3:45,0,0,0,0
2004/3/7 4:00,0,0,0,0
2004/3/7 4:15,0,0,0,0
2004/3/7 4:30,0,0,0,0
2004/3/7 4:45,0,0,0,0
2004/3/7 5:00,0,0,0,0
2004/3/7 5:15,0,0,0,0
2004/3/7 5:30,0,0,0,0
2004/3/7 5:45,0,0,0,0
2004/3/7 6:00,0.002920218,0,0.428688,0
2004/3/7 6:15,0.073842834,0,10.840128,0
2004/3/7 6:30,0.073847084,0,10.840752,0
2004/3/7 6:45,0.073847084,0,10.840752,0
2004/3/7 7:00,0.073851335,0,10.841376,0
2004/3/7 7:15,0.073847084,0,10.840752,0
2004/3/7 7:30,0.073851335,0,10.841376,0
2004/3/7 7:45,0.073851335,0,10.841376,0
2004/3/7 8:00,0.073851335,0,10.841376,0
2004/3/7 8:15,0.073740817,0,10.825152,0
2004/3/7 8:30,0.073851335,0,10.841376,0
2004/3/7 8:45,0.073851335,0,10.841376,0
2004/3/7 9:00,0.073851335,0,10.841376,0
2004/3/7 9:15,0.073855586,0,10.842,0
2004/3/7 9:30,0.073851335,0,10.841376,0
2004/3/7 9:45,0.073851335,0,10.841376,0
2004/3/7 10:00,0.069128828,0,10.148112,0
2004/3/7 10:15,0.065983324,0,9.686352,0
2004/3/7 10:30,0.072967193,0,10.711584,0
2004/3/7 10:45,0.062765559,0,9.213984,0
2004/3/7 11:00,0,0,0,0
2004/3/7 11:15,0,0,0,0
2004/3/7 11:30,0,0,0,0
2004/3/7 11:45,0,0,0,0
2004/3/7 12:00,0,0,0,0
2004/3/7 12:15,0.072627139,0,10.661664,0
2004/3/7 12:30,0.073847084,0,10.840752,0
2004/3/7 12:45,0.073851335,0,10.841376,0
2004/3/7 13:00,0.073851335,0,10.841376,0
2004/3/7 13:15,0.073647302,0,10.811424,0
2004/3/7 13:30,0.070131989,0,10.295376,0
2004/3/7 13:45,0.063785722,0,9.363744,0
2004/3/7 14:00,0.073855586,0,10.842,0
2004/3/7 14:15,0.069218093,0,10.161216,0
2004/3/7 14:30,0.072397602,0,10.627968,0
2004/3/7 14:45,0.060040872,0,8.814,0
2004/3/7 15:00,0.072652643,0,10.665408,0
2004/3/7 15:15,0,0,0,0
2004/3/7 15:30,0,0,0,0
2004/3/7 15:45,0,0,0,0
2004/3/7 16:00,0,0,0,0
2004/3/7 16:15,0,0,0,0
2004/3/7 16:30,0,0,0,0
2004/3/7 16:45,0,0,0,0
2004/3/7 17:00,0,0,0,0
2004/3/7 17:15,0.06433406,0,9.44424,0
2004/3/7 17:30,0.073847084,0,10.840752,0
2004/3/7 17:45,0.073047956,0,10.72344,0
2004/3/7 18:00,0.070926866,0,10.412064,0
2004/3/7 18:15,0.060491444,0,8.880144,0
2004/3/7 18:30,0.073851335,0,10.841376,0
2004/3/7 18:45,0.073770572,0,10.82952,0
2004/3/7 19:00,0.062952589,0,9.24144,0
2004/3/7 19:15,0.059887847,0,8.791536,0
2004/3/7 19:30,0.058276839,0,8.55504,0
2004/3/7 19:45,0.057316185,0,8.414016,0
2004/3/7 20:00,0.061664632,0,9.052368,0
2004/3/7 20:15,0.073851335,0,10.841376,0
2004/3/7 20:30,0.073405014,0,10.775856,0
2004/3/7 20:45,0.067288283,0,9.87792,0
2004/3/7 21:00,0.072142561,0,10.590528,0
2004/3/7 21:15,0.069783433,0,10.244208,0
2004/3/7 21:30,0.06364545,0,9.343152,0
2004/3/7 21:45,0.062727302,0,9.208368,0
2004/3/7 22:00,0.068831281,0,10.104432,0
2004/3/7 22:15,0.066603924,0,9.777456,0
2004/3/7 22:30,0.072049046,0,10.5768,0
2004/3/7 22:45,0.051216458,0,7.518576,0
2004/3/7 23:00,0,0,0,0
2004/3/7 23:15,0,0,0,0
2004/3/7 23:30,0,0,0,0
2004/3/7 23:45,0,0,0,0
2004/3/8 0:00,0,0,0,0
2004/3/8 0:15,0,0,0,0
2004/3/8 0:30,0,0,0,0
2004/3/8 0:45,0,0,0,0
2004/3/8 1:00,0,0,0,0
2004/3/8 1:15,0,0,0,0
2004/3/8 1:30,0,0,0,0
2004/3/8 1:45,0,0,0,0
2004/3/8 2:00,0,0,0,0
2004/3/8 2:15,0,0,0,0
2004/3/8 2:30,0,0,0,0
2004/3/8 2:45,0,0,0,0
2004/3/8 3:00,0,0,0,0
2004/3/8 3:15,0,0,0,0
2004/3/8 3:30,0,0,0,0
2004/3/8 3:45,0,0,0,0
2004/3/8 4:00,0,0,0,0
2004/3/8 4:15,0,0,0,0
2004/3/8 4:30,0,0,0,0
2004/3/8 4:45,0,0,0,0
2004/3/8 5:00,0,0,0,0
2004/3/8 5:15,0,0,0,0
2004/3/8 5:30,0,0,0,0
2004/3/8 5:45,0,0,0,0
2004/3/8 6:00,0.050553351,0,7.421232,0
2004/3/8 6:15,0.073847084,0,10.840752,0
2004/3/8 6:30,0.073847084,0,10.840752,0
2004/3/8 6:45,0.073847084,0,10.840752,0
2004/3/8 7:00,0.073851335,0,10.841376,0
2004/3/8 7:15,0.073851335,0,10.841376,0
2004/3/8 7:30,0.073851335,0,10.841376,0
2004/3/8 7:45,0.073851335,0,10.841376,0
2004/3/8 8:00,0.072622888,0,10.66104,0
2004/3/8 8:15,0.073842834,0,10.840128,0
2004/3/8 8:30,0.071606975,0,10.511904,0
2004/3/8 8:45,0,0,0,0
2004/3/8 9:00,0,0,0,0
2004/3/8 9:15,0,0,0,0
2004/3/8 9:30,0,0,0,0
2004/3/8 9:45,0,0,0,0
2004/3/8 10:00,0,0,0,0
2004/3/8 10:15,0,0,0,0
2004/3/8 10:30,0,0,0,0
2004/3/8 10:45,0,0,0,0
2004/3/8 11:00,0,0,0,0
2004/3/8 11:15,0,0,0,0
2004/3/8 11:30,0,0,0,0
2004/3/8 11:45,0,0,0,0
2004/3/8 12:00,0,0,0,0
2004/3/8 12:15,0,0,0,0
2004/3/8 12:30,0,0,0,0